This is the latest recevied weather packets stored in our database for station/object N5LSN. If no packets are shown the sender has not sent any weather packets the latest 10 day(s).
| Time | Temp. | Humidity | Pressure | Rain* | Wind** | Luminosity | Snow |
|---|---|---|---|---|---|---|---|
| 1777787240 | 8.89° C | 93% | 1020.9 hPa | 0 mm | - | 0 W/m² | - |
| 1777786937 | 8.89° C | 92% | 1021.3 hPa | 0 mm | - | 0 W/m² | - |
| 1777786635 | 9.44° C | 92% | 1020.9 hPa | 0 mm | - | 0 W/m² | - |
| 1777786334 | 9.44° C | 90% | 1020.8 hPa | 0 mm | - | 0 W/m² | - |
| 1777786029 | 9.44° C | 89% | 1020.8 hPa | 0 mm | - | 0 W/m² | - |
| 1777785726 | 9.44° C | 89% | 1020.8 hPa | 0 mm | - | 0 W/m² | - |
| 1777785421 | 9.44° C | 88% | 1020.7 hPa | 0 mm | - | 0 W/m² | - |
| 1777785119 | 9.44° C | 88% | 1020.7 hPa | 0 mm | - | 0 W/m² | - |
| 1777784815 | 9.44° C | 88% | 1020.7 hPa | 0 mm | - | 0 W/m² | - |
| 1777784512 | 9.44° C | 87% | 1020.6 hPa | 0 mm | - | 0 W/m² | - |
| 1777784210 | 9.44° C | 88% | 1020.5 hPa | 0 mm | - | 0 W/m² | - |
| 1777783907 | 10° C | 89% | 1020.7 hPa | 0 mm | - | 0 W/m² | - |
| 1777783603 | 10° C | 88% | 1020.6 hPa | 0 mm | - | 0 W/m² | - |
| 1777783301 | 10° C | 90% | 1020.6 hPa | 0 mm | - | 0 W/m² | - |
| 1777782997 | 10° C | 86% | 1020.5 hPa | 0 mm | - | 0 W/m² | - |
| 1777782694 | 10.56° C | 85% | 1020.6 hPa | 0 mm | - | 0 W/m² | - |
| 1777782391 | 10.56° C | 83% | 1020.4 hPa | 0 mm | - | 0 W/m² | - |
| 1777782086 | 10.56° C | 82% | 1020.5 hPa | 0 mm | - | 0 W/m² | - |
| 1777781778 | 10.56° C | 81% | 1020.6 hPa | 0 mm | - | 0 W/m² | - |
| 1777781476 | 11.11° C | 81% | 1020.4 hPa | 0 mm | - | 0 W/m² | - |
| 1777781173 | 11.67° C | 81% | 1020.6 hPa | 0 mm | - | 0 W/m² | - |
| 1777780870 | 11.67° C | 79% | 1020.4 hPa | 0 mm | - | 0 W/m² | - |
| 1777780567 | 11.67° C | 79% | 1020.4 hPa | 0 mm | - | 0 W/m² | - |
| 1777780264 | 11.67° C | 80% | 1020.4 hPa | 0 mm | - | 0 W/m² | - |
| 1777779961 | 11.67° C | 78% | 1020.3 hPa | 0 mm | - | 0 W/m² | - |
* Rain latest hour (hover to see other rain measurements)
** Current wind speed in m/s (hover to see current wind gust speed)